Regional Weather Roundup
Issued by NWS

Home | Current Version | Previous Version | Graphics & Text | Print | Product List | Glossary Off
Versions: 1 2 3 4 5 6 7 8 9 10 11 12 13 14 15 16 17 18 19 20 21 22 23 24 25 26 27 28 29 30 31 32 33 34 35 36 37 38 39 40 41 42 43 44 45 46 47 48 49 50

000
ASUS43 KDMX 221603
RWRIA

WEATHER ROUNDUP FOR IOWA
NATIONAL WEATHER SERVICE DES MOINES IA
1100 AM CDT FRI JUL 22 2016

NOTE: "FAIR" INDICATES FEW OR NO CLOUDS BELOW 12,000 FEET WITH NO
SIGNIFICANT WEATHER AND/OR OBSTRUCTIONS TO VISIBILITY.

* - THESE STATIONS ARE NOT NWS STATIONS...THUS NOT UNDER NWS
QUALITY CONTROL.  THEY ALSO DO NOT REPORT WEATHER SUCH
AS PRECIPITATION OR FOG.

IAZ001>003-012>014-020>022-031>034-043>046-221700-
   NORTHWEST IOWA

CITY           SKY/WX    TMP DP  RH WIND       PRES   REMARKS
CARROLL *      SUNNY     86  77  74 S14       29.97R HX  97
CHEROKEE *     SUNNY     87  80  78 SE8       29.96S HX 102
DENISON *      SUNNY     84  77  79 S12G18    29.94S HX  94
LE MARS *      PTSUNNY   88  81  79 VRB5      29.96R HX 105
SHELDON *      CLOUDY    84  82  94 NE10      29.98R HX 101
SIOUX CITY     SUNNY     89  77  67 E7        29.93S HX 101
SPENCER        CLOUDY    83  78  85 E10       29.99R HX  93
STORM LAKE *   SUNNY     84  79  84 S8        29.99R HX  96
$$

IAZ055>058-069>071-079>083-090>094-221700-
   SOUTHWEST IOWA

CITY           SKY/WX    TMP DP  RH WIND       PRES   REMARKS
ATLANTIC *     SUNNY     86  75  70 S12G20    29.98S HX  95
CLARINDA *       N/A     86  77  74 MISG      30.02R HX  97
COUNCIL BLFS * SUNNY     86  75  70 SE15      29.96S HX  95
CRESTON *      PTSUNNY   81  73  78 S13G23    30.05R HX  85
HARLAN  *      SUNNY     84  77  79 SE16      30.00F HX  94
LAMONI         CLOUDY    78  71  79 S15G22    30.05R HX  80
RED OAK *      SUNNY     88  75  66 S15G22    29.98S HX  97
SHENANDOAH *   SUNNY     88  77  70 SE14      29.98S HX 100
$$

IAZ047>049-059>061-072>074-084-221700-
   CENTRAL IOWA

CITY           SKY/WX    TMP DP  RH WIND       PRES   REMARKS
AMES           MOSUNNY   82  76  81 S13       29.99S HX  89
ANKENY *         N/A    N/A N/A N/A MISG        N/A
BOONE *        MOSUNNY   82  75  78 S12       29.99R HX  89
CHARITON *       N/A    N/A N/A N/A MISG        N/A
DES MOINES     CLOUDY    81  73  76 S15       30.01R HX  86
GRINNELL*      SUNNY     81  71  72 S12G20    30.02S HX  85
KNOXVILLE *    CLOUDY    79  72  78 S18G25    30.01S HX  82
MARSHALLTOWN   SUNNY     83  75  77 S13       30.00S HX  90
NEWTON *       SUNNY     82  75  78 SW13      30.01S HX  89
PELLA *        CLOUDY    82  72  71 S7G16     30.03S HX  86
PERRY *          N/A     83  77  83 S16G24    29.99R HX  92
$$

IAZ004>006-015-016-023>025-035-036-221700-
   NORTH CENTRAL IOWA

CITY           SKY/WX    TMP DP  RH WIND       PRES   REMARKS
ALGONA *       MOSUNNY   84  77  79 SE9       30.00R HX  94
ESTHERVILLE    CLOUDY    81  79  94 E6        30.00R HX  90
FORT DODGE *   SUNNY     82  75  78 S12       30.00S HX  89
MASON CITY     PTSUNNY   84  75  74 S7        30.02R HX  92
FOREST CITY *    N/A     81  73  78 S8        30.01S HX  85
IOWA FALLS *     N/A     83  74  74 S9        30.03R HX  89
$$

IAZ007>011-017>019-026>030-037>042-050>054-066-221700-
   NORTHEAST IOWA

CITY           SKY/WX    TMP DP  RH WIND       PRES   REMARKS
CEDAR RAPIDS   CLOUDY    77  74  90 SW7       30.02F
CHARLES CITY * MOSUNNY   82  77  83 S8        30.02S HX  91
CLINTON *      CLOUDY    79  71  76 SW10      30.06  HX  82
DECORAH *      CLOUDY    79  73  83 CALM      30.03R HX  82
DUBUQUE          N/A     77  72  84 SW5       30.06R
MONTICELLO *   MOSUNNY   79  72  78 SW6       30.04R HX  82
OELWEIN *      MOSUNNY   81  75  83 SW8G14    30.04R HX  86
WATERLOO       MOSUNNY   84  73  69 S9        30.01R HX  90
$$

IAZ064-065-067-068-078-221700-
   EAST CENTRAL IOWA

CITY           SKY/WX    TMP DP  RH WIND       PRES   REMARKS
DAVENPORT      CLOUDY    78  69  73 SW9       30.06R HX  80
IOWA CITY      CLOUDY    77  71  82 S7        30.03F
MT. PLEASANT * CLOUDY    77  74  92 S8        30.03S
MUSCATINE *    CLOUDY    77  70  78 S7        30.04R
QUAD CITIES    PTSUNNY   80  69  69 SW10      30.04S HX  83
$$

IAZ062-063-075>077-085>089-095>099-221700-
   SOUTHEAST IOWA

CITY           SKY/WX    TMP DP  RH WIND       PRES   REMARKS
BURLINGTON     CLOUDY    73  71  93 S7        30.04R
FAIRFIELD *    CLOUDY    75  70  83 SW5       30.02R
KEOKUK *       CLOUDY    73  70  88 S9        30.03S
OSKALOOSA *      N/A     78  73  82 SW14      30.02S HX  81
CENTERVILLE *    N/A     77  72  83 S16       30.06F
OTTUMWA        CLOUDY    80  71  74 S8        30.00S HX  84
WASHINGTON *   CLOUDY    73  72  94 SW5       30.04R
$$

ABBREVIATIONS USED IN REMARKS
   TC - TEMPERATURES IN CELSIUS
  WCI - WIND CHILL INDEX
   HX - HEAT INDEX
  VSB - VISIBILITY
$$





USA.gov is the U.S. government's official web portal to all federal, state and local government web resources and services.